{"data":{"norad_id":46702,"epoch":"2026-09-19T23:17:14.764992Z","epoch_age_seconds":67642,"freshness":"FRESH","line1":"1 46702U 20073AJ  26262.97030978  .00058323  00000+0  10744-2 0  9990","line2":"2 46702  53.1525  22.6772 0001895 323.4108  36.6771 15.48621257327397","mean_motion":15.48621257,"eccentricity":0.0001895,"inclination_deg":53.1525,"raan_deg":22.6772,"arg_perigee_deg":323.4108,"mean_anomaly_deg":36.6771,"bstar":0.0010744,"rev_number":32739,"period_min":92.985937878031,"perigee_km":419.47007413187,"apogee_km":422.04685551304,"semimajor_km":6798.8954648225,"source":"CELESTRAK","updated_at":"2026-09-20T09:00:38.586175Z"}}